This is the latest recevied weather packets stored in our database for station/object LA4GY-1. If no packets are shown the sender has not sent any weather packets the latest 10 day(s).
| Time | Temp. | Humidity | Pressure | Rain* | Wind** | Luminosity | Snow |
|---|---|---|---|---|---|---|---|
| 1788049746 | 15° C | 93% | 999.7 hPa | 0.51 mm | - | - | - |
| 1788049146 | 15° C | 93% | 999.6 hPa | 0.51 mm | - | - | - |
| 1788048546 | 15° C | 93% | 999.5 hPa | 0.25 mm | - | - | - |
| 1788047946 | 14.44° C | 93% | 999.5 hPa | 0.51 mm | - | - | - |
| 1788047346 | 14.44° C | 93% | 999.6 hPa | 0.51 mm | - | - | - |
| 1788046716 | 14.44° C | 93% | 999.8 hPa | 0.25 mm | - | - | - |
| 1788046116 | 14.44° C | 93% | 999.7 hPa | 0.25 mm | - | - | - |
| 1788045516 | 14.44° C | 93% | 999.8 hPa | 0.25 mm | - | - | - |
| 1788044916 | 14.44° C | 93% | 999.8 hPa | 0.25 mm | - | - | - |
| 1788044316 | 14.44° C | 93% | 999.7 hPa | 0 mm | - | - | - |
| 1788043716 | 14.44° C | 92% | 999.6 hPa | 0 mm | - | - | - |
| 1788043116 | 14.44° C | 92% | 999.6 hPa | 0 mm | - | - | - |
| 1788042516 | 14.44° C | 92% | 999.7 hPa | 0 mm | - | - | - |
| 1788041916 | 14.44° C | 92% | 999.7 hPa | 0 mm | - | - | - |
| 1788041316 | 14.44° C | 92% | 999.8 hPa | 0 mm | - | - | - |
| 1788040716 | 14.44° C | 92% | 999.9 hPa | 0.51 mm | - | - | - |
| 1788040116 | 14.44° C | 92% | 999.8 hPa | 0 mm | - | - | - |
| 1788039516 | 14.44° C | 92% | 999.8 hPa | 0 mm | - | - | - |
| 1788038885 | 14.44° C | 92% | 999.5 hPa | 0 mm | - | - | - |
| 1788038285 | 15° C | 92% | 999.5 hPa | 0 mm | - | - | - |
| 1788037685 | 15° C | 92% | 999.5 hPa | 0 mm | - | - | - |
| 1788037085 | 15° C | 92% | 999.6 hPa | 0 mm | - | - | - |
| 1788036485 | 15° C | 91% | 999.4 hPa | 0 mm | - | - | - |
| 1788035885 | 15° C | 91% | 999.5 hPa | 0 mm | - | - | - |
| 1788035285 | 15° C | 91% | 999.6 hPa | 0 mm | - | - | - |
* Rain latest hour (hover to see other rain measurements)
** Current wind speed in m/s (hover to see current wind gust speed)